Hourly Weather Bolshoe Svyatcovo

Today, 27 July, Tuesday

Time Temperature Precipitation Wind Pressure Humidity
00:00 +18°C° 0 mm 1 mps 749 mmHg 67%
01:00 +18°C° 0 mm 1 mps 749 mmHg 69%
02:00 +16°C° 0 mm 1 mps 749 mmHg 72%
03:00 +16°C° 0 mm 1 mps 749 mmHg 72%
04:00 +18°C° 0 mm 1 mps 749 mmHg 73%
05:00 +18°C° 0 mm 1 mps 749 mmHg 74%
06:00 +20°C° 0 mm 1 mps 749 mmHg 65%
07:00 +23°C° 0 mm 1 mps 749 mmHg 57%
08:00 +23°C° 0 mm 0 mps 749 mmHg 48%
09:00 +27°C° 0 mm 1 mps 749 mmHg 44%
10:00 +28°C° 0 mm 1 mps 749 mmHg 39%
11:00 +29°C° 0 mm 1 mps 748 mmHg 34%
12:00 +30°C° 0 mm 1 mps 748 mmHg 33%
13:00 +30°C° 0 mm 1 mps 748 mmHg 31%
14:00 +31°C° 0 mm 1 mps 747 mmHg 30%
15:00 +30°C° 0 mm 1 mps 747 mmHg 34%
16:00 +30°C° 0 mm 1 mps 747 mmHg 37%
17:00 +29°C° 0 mm 1 mps 746 mmHg 41%
18:00 +27°C° 0 mm 1 mps 746 mmHg 49%
19:00 +25°C° 0 mm 1 mps 746 mmHg 57%
20:00 +22°C° 0 mm 1 mps 746 mmHg 65%
21:00 +22°C° 0 mm 1 mps 746 mmHg 67%
22:00 +21°C° 0 mm 1 mps 746 mmHg 68%
23:00 +20°C° 0 mm 1 mps 746 mmHg 70%

Tomorrow, 28 July, Wednesday

Time Temperature Precipitation Wind Pressure Humidity
00:00 +20°C° 0 mm 1 mps 745 mmHg 72%
01:00 +19°C° 0 mm 1 mps 745 mmHg 73%
02:00 +19°C° 0 mm 1 mps 745 mmHg 75%
03:00 +19°C° 0 mm 1 mps 745 mmHg 76%
04:00 +19°C° 0 mm 1 mps 744 mmHg 77%
05:00 +19°C° 0 mm 1 mps 744 mmHg 77%
06:00 +20°C° 0 mm 2 mps 744 mmHg 71%
07:00 +23°C° 0 mm 2 mps 744 mmHg 64%
08:00 +25°C° 0 mm 2 mps 743 mmHg 57%
09:00 +26°C° 0 mm 2 mps 743 mmHg 56%
10:00 +26°C° 0 mm 2 mps 743 mmHg 55%
11:00 +27°C° 0 mm 2 mps 742 mmHg 54%
12:00 +27°C° 0 mm 3 mps 742 mmHg 52%
13:00 +28°C° 0 mm 3 mps 741 mmHg 49%
14:00 +29°C° 0 mm 3 mps 741 mmHg 47%
15:00 +26°C° 0.7 mm 3 mps 740 mmHg 60%
16:00 +24°C° 0.7 mm 3 mps 740 mmHg 74%
17:00 +21°C° 0.7 mm 2 mps 740 mmHg 87%
18:00 +20°C° 1.2 mm 2 mps 740 mmHg 90%
19:00 +20°C° 1.2 mm 2 mps 739 mmHg 93%
20:00 +19°C° 1.2 mm 2 mps 739 mmHg 96%
21:00 +19°C° 0.1 mm 2 mps 739 mmHg 97%
22:00 +19°C° 0.1 mm 2 mps 739 mmHg 97%
23:00 +19°C° 0.1 mm 1 mps 739 mmHg 98%

Day after tomorrow, 29 July, Thursday

Time Temperature Precipitation Wind Pressure Humidity
00:00 +18°C° 0.1 mm 2 mps 738 mmHg 98%
01:00 +18°C° 0.1 mm 2 mps 738 mmHg 98%
02:00 +18°C° 0.1 mm 2 mps 738 mmHg 99%
03:00 +18°C° 0 mm 2 mps 738 mmHg 98%
04:00 +18°C° 0 mm 2 mps 738 mmHg 97%
05:00 +18°C° 0 mm 2 mps 738 mmHg 97%
06:00 +19°C° 0 mm 2 mps 738 mmHg 91%
07:00 +20°C° 0 mm 3 mps 738 mmHg 85%
08:00 +22°C° 0 mm 3 mps 738 mmHg 79%
09:00 +24°C° 0 mm 3 mps 738 mmHg 69%
10:00 +26°C° 0 mm 4 mps 738 mmHg 59%
11:00 +27°C° 0 mm 4 mps 738 mmHg 49%
12:00 +28°C° 0 mm 4 mps 738 mmHg 46%
13:00 +28°C° 0 mm 4 mps 737 mmHg 43%
14:00 +29°C° 0 mm 5 mps 737 mmHg 40%
15:00 +28°C° 0 mm 4 mps 737 mmHg 45%
16:00 +27°C° 0 mm 4 mps 737 mmHg 49%
17:00 +26°C° 0 mm 4 mps 737 mmHg 53%
18:00 +25°C° 0 mm 3 mps 737 mmHg 61%
19:00 +22°C° 0 mm 3 mps 737 mmHg 68%
20:00 +20°C° 0 mm 2 mps 737 mmHg 75%
21:00 +19°C° 0 mm 2 mps 737 mmHg 79%
22:00 +18°C° 0 mm 2 mps 737 mmHg 83%
23:00 +17°C° 0 mm 2 mps 737 mmHg 87%

30 July, Friday

Time Temperature Precipitation Wind Pressure Humidity
00:00 +17°C° 0 mm 2 mps 737 mmHg 88%
01:00 +17°C° 0 mm 2 mps 737 mmHg 90%
02:00 +16°C° 0 mm 2 mps 737 mmHg 92%
03:00 +17°C° 0 mm 2 mps 737 mmHg 89%
04:00 +17°C° 0 mm 2 mps 737 mmHg 86%
05:00 +18°C° 0 mm 2 mps 737 mmHg 83%
06:00 +20°C° 0.1 mm 2 mps 737 mmHg 77%
07:00 +21°C° 0.1 mm 3 mps 737 mmHg 70%
08:00 +24°C° 0.1 mm 3 mps 737 mmHg 64%
09:00 +25°C° 0.1 mm 4 mps 737 mmHg 55%
10:00 +26°C° 0.1 mm 4 mps 737 mmHg 47%
11:00 +27°C° 0.1 mm 4 mps 737 mmHg 39%
12:00 +26°C° 0 mm 4 mps 737 mmHg 43%
13:00 +26°C° 0 mm 3 mps 737 mmHg 47%
14:00 +25°C° 0 mm 3 mps 737 mmHg 51%
15:00 +24°C° 0 mm 3 mps 737 mmHg 55%
16:00 +23°C° 0 mm 2 mps 737 mmHg 60%
17:00 +21°C° 0 mm 2 mps 737 mmHg 64%
18:00 +21°C° 0 mm 2 mps 736 mmHg 67%
19:00 +20°C° 0 mm 2 mps 736 mmHg 70%
20:00 +19°C° 0 mm 2 mps 736 mmHg 73%
21:00 +19°C° 0 mm 2 mps 736 mmHg 72%
22:00 +18°C° 0 mm 3 mps 736 mmHg 72%
23:00 +18°C° 0 mm 3 mps 736 mmHg 72%

31 July, Saturday

Time Temperature Precipitation Wind Pressure Humidity
00:00 +17°C° 0 mm 3 mps 736 mmHg 71%
01:00 +17°C° 0 mm 3 mps 736 mmHg 70%
02:00 +16°C° 0 mm 3 mps 736 mmHg 69%
03:00 +16°C° 0 mm 3 mps 736 mmHg 69%
04:00 +16°C° 0 mm 3 mps 736 mmHg 69%
05:00 +16°C° 0 mm 3 mps 736 mmHg 69%
06:00 +18°C° 0 mm 4 mps 736 mmHg 61%
07:00 +20°C° 0 mm 5 mps 736 mmHg 54%
08:00 +22°C° 0 mm 5 mps 736 mmHg 47%
09:00 +23°C° 0 mm 6 mps 736 mmHg 43%
10:00 +24°C° 0 mm 6 mps 736 mmHg 39%
11:00 +26°C° 0 mm 6 mps 736 mmHg 35%
12:00 +27°C° 0 mm 6 mps 736 mmHg 34%
13:00 +27°C° 0 mm 6 mps 736 mmHg 33%
14:00 +28°C° 0 mm 6 mps 736 mmHg 31%
15:00 +27°C° 0 mm 5 mps 736 mmHg 34%
16:00 +27°C° 0 mm 4 mps 736 mmHg 37%
17:00 +26°C° 0 mm 4 mps 736 mmHg 40%
18:00 +24°C° 0 mm 3 mps 736 mmHg 48%
19:00 +21°C° 0 mm 2 mps 736 mmHg 55%
20:00 +20°C° 0 mm 1 mps 736 mmHg 63%
21:00 +18°C° 0 mm 2 mps 737 mmHg 65%
22:00 +18°C° 0 mm 2 mps 737 mmHg 66%
23:00 +17°C° 0 mm 2 mps 737 mmHg 68%

1 August, Sunday

Time Temperature Precipitation Wind Pressure Humidity
00:00 +17°C° 0 mm 2 mps 737 mmHg 70%
01:00 +16°C° 0 mm 2 mps 737 mmHg 71%
02:00 +16°C° 0 mm 2 mps 737 mmHg 72%
03:00 +16°C° 0 mm 1 mps 737 mmHg 72%
04:00 +16°C° 0 mm 1 mps 737 mmHg 72%
05:00 +16°C° 0 mm 1 mps 737 mmHg 72%
06:00 +18°C° 0 mm 2 mps 736 mmHg 67%
07:00 +20°C° 0 mm 2 mps 736 mmHg 63%
08:00 +21°C° 0 mm 3 mps 736 mmHg 59%
09:00 +22°C° 0.3 mm 3 mps 736 mmHg 60%
10:00 +24°C° 0.3 mm 3 mps 736 mmHg 61%
11:00 +25°C° 0.3 mm 3 mps 736 mmHg 63%
12:00 +26°C° 0.3 mm 3 mps 736 mmHg 60%
13:00 +26°C° 0.3 mm 3 mps 736 mmHg 57%
14:00 +27°C° 0.3 mm 3 mps 736 mmHg 54%
15:00 +26°C° 0.1 mm 3 mps 736 mmHg 56%
16:00 +26°C° 0.1 mm 3 mps 736 mmHg 58%
17:00 +25°C° 0.1 mm 3 mps 736 mmHg 59%
18:00 +24°C° 0.1 mm 3 mps 736 mmHg 64%
19:00 +21°C° 0.1 mm 3 mps 737 mmHg 68%
20:00 +19°C° 0.1 mm 2 mps 737 mmHg 72%
21:00 +18°C° 0 mm 2 mps 737 mmHg 75%
22:00 +17°C° 0 mm 2 mps 737 mmHg 79%
23:00 +16°C° 0 mm 2 mps 738 mmHg 82%
Show more

We Need Your Consent

Meteoprog and our Service Providers may store and access personal data such as cookies, device identifiers or other similar technologies on your device and process such data to personalise content and ads, as well as provide social media features and to analyse the traffic.

  • Store and/or access information on your device

    Cookies, device identifiers or other information can be stored or accessed on your device for the purposes indicated above.

  • Personalised ads and content, ad and content measurement, audience insights, and products development

    Ads and content can be personalised based on a profile. More data can be added to better personalise ads and content. Ad and content performance can be measured. Insights about the audience who saw the ads and content can be derived. Such data can be used to develop or improve user’s experience, systems and software.

By clicking ‘I Agree’ you will allow the use of indicated cookies, device identifiers, web beacons or other similar technologies. Your settings can be changed in the browser on your device.

For certain purposes, legitimate interests may be relied on, rather than consent. You can read more about this in our Privacy and Cookie Policy.